Theta_e
300 301 300 301 300 300 300 300 300 300 300 300 300 299 297 297 297 300 301 301 301 302 301 300 300 301 301 300 301 301 300 303 302 303 304 304 304 305 303 302 303 303 303 304 306 308 312 301 300 299 299 299 299 299
300 299 300 300 300 300 300 300 299 298 299 299 300 299 298 297 297 297 301 301 301 301 301 300 300 300 300 300 301 301 300 300 301 302 302 303 303 303 303 302 301 301 301 302 302 302 300 300 299 299 299 299 299 299
300 300 300 300 300 300 300 300 300 299 298 299 299 299 299 298 298 298 300 300 299 299 299 300 301 300 300 300 300 300 300 300 300 299 300 301 301 300 300 299 299 299 299 300 300 299 299 299 299 299 299 299 299 299
299 299 299 300 300 299 299 299 300 300 300 299 299 299 299 299 299 298 300 300 299 300 300 299 299 298 298 298 299 300 300 299 300 300 300 301 300 299 299 299 299 299 299 298 298 298 298 299 298 299 299 299 299 299
299 299 299 299 299 299 299 299 298 300 299 299 299 299 299 298 298 298 299 299 299 299 299 299 297 298 298 298 298 299 299 299 300 301 301 299 298 299 298 299 299 298 298 299 301 299 299 298 298 299 299 300 299 299
297 298 298 299 299 299 299 299 299 299 299 299 299 299 298 298 297 299 300 300 299 299 299 298 298 297 297 299 299 299 299 299 300 301 300 300 299 299 299 298 297 297 298 298 298 298 298 298 299 300 299 298 298 297
298 298 298 299 299 299 298 298 298 298 298 298 298 298 297 297 297 299 299 299 298 298 299 297 298 299 298 298 299 299 299 299 299 300 299 298 298 299 300 299 298 299 298 298 298 299 299 299 299 297 297 296 295 295
297 298 298 298 298 299 298 298 298 298 297 297 297 297 297 297 297 298 298 298 297 297 297 296 297 298 298 299 299 298 298 299 299 299 299 299 299 299 299 298 298 298 298 298 299 298 297 297 297 296 295 294 293 292
297 297 297 298 298 299 299 299 298 297 297 297 297 297 297 297 298 297 298 298 298 297 297 297 296 298 298 299 299 298 298 299 298 299 299 299 299 300 299 298 298 298 299 298 297 296 296 295 295 294 293 292 291 290
296 296 297 298 298 298 298 299 299 298 297 297 297 297 296 297 298 297 296 297 297 297 297 297 297 297 298 298 298 299 299 299 299 298 298 300 299 298 298 298 298 298 297 297 296 296 295 294 293 292 292 290 290 289
296 296 297 297 297 297 298 298 298 297 297 296 297 296 296 296 297 297 297 297 296 295 294 296 296 296 297 297 297 298 297 297 298 298 298 297 298 298 298 299 297 297 297 296 295 294 293 292 292 291 290 290 289 288
294 296 296 297 297 297 297 297 297 297 296 296 295 295 296 296 295 297 296 296 296 297 297 296 296 296 297 297 297 296 297 297 296 298 298 296 297 298 299 298 297 297 296 295 294 293 292 291 290 290 289 289 288 288
295 296 296 297 297 297 297 297 297 296 296 295 296 294 295 295 297 299 295 298 297 296 297 296 297 297 296 296 297 297 297 296 297 298 297 297 298 299 299 297 297 296 295 294 293 292 291 290 289 289 289 288 288 287
294 295 295 296 296 297 297 296 296 296 297 295 296 297 296 296 296 297 297 296 296 296 296 297 298 298 297 297 296 298 295 295 297 296 298 296 297 298 298 296 296 295 294 293 292 291 290 289 289 288 288 288 287 287
295 295 295 296 296 296 296 297 297 297 293 295 296 298 296 296 298 297 297 297 297 297 298 297 297 297 298 298 296 294 295 295 295 298 297 298 298 298 296 295 295 294 292 292 291 290 289 289 288 288 288 287 285 285
295 295 295 296 295 296 297 297 296 293 292 294 295 296 298 297 297 295 296 297 296 297 297 298 297 296 297 294 297 296 295 296 296 296 295 298 298 296 295 294 294 293 292 291 290 289 289 288 287 287 286 285 284 284
295 296 296 296 295 295 296 296 295 292 294 296 296 295 296 297 297 297 295 295 296 297 298 298 296 294 293 295 296 296 296 295 295 294 295 296 297 295 294 294 293 293 291 290 289 289 288 286 285 285 285 285 284 284
295 296 296 296 295 296 295 296 293 293 293 294 295 296 295 295 295 296 295 295 296 296 297 298 296 295 292 293 294 295 295 295 294 293 294 296 296 295 294 293 293 291 290 289 289 288 287 285 285 284 284 284 284 283
295 296 296 296 296 295 293 293 293 296 294 295 294 293 294 294 294 295 295 295 296 296 296 296 296 295 296 295 294 294 294 293 292 293 294 296 295 294 293 293 291 290 289 288 287 286 286 285 284 283 283 283 283 283
296 296 297 296 296 293 294 293 291 295 295 294 293 294 294 295 294 294 293 293 295 295 296 294 295 295 294 293 294 294 294 292 292 291 291 292 294 294 293 291 289 289 288 286 285 285 285 285 283 282 282 282 282 282
296 297 296 296 294 293 293 293 294 294 294 294 295 295 294 292 291 292 294 295 295 295 293 294 295 294 295 295 296 294 295 295 293 293 293 292 294 292 290 289 288 286 286 285 285 285 284 284 283 282 282 282 281 281
296 296 294 293 292 290 292 292 294 293 293 294 292 292 293 293 292 292 293 293 294 293 293 294 294 294 293 290 292 292 293 292 292 292 292 291 290 289 288 287 286 285 285 285 284 284 283 283 282 282 281 281 281 281
295 295 292 292 293 293 293 290 293 293 292 293 294 294 293 293 294 292 292 292 292 292 293 293 292 292 292 291 290 290 290 290 290 290 290 290 289 288 287 286 285 285 285 284 283 282 282 282 281 281 281 280 280 280
294 291 294 295 294 294 292 293 294 293 292 292 293 293 292 293 294 295 295 294 293 289 288 289 289 289 289 289 289 290 288 288 289 288 287 287 286 285 285 285 284 284 283 283 282 281 281 281 280 280 280 280 279 279
294 295 295 295 293 291 292 294 294 293 293 292 294 292 293 293 295 295 295 293 290 290 290 289 289 290 290 290 289 288 287 287 287 287 286 286 286 284 283 283 282 282 281 281 281 281 281 280 280 279 279 279 279 279
295 293 294 292 292 290 291 292 292 292 293 292 293 292 292 294 295 294 294 291 289 289 287 285 286 285 288 288 288 287 286 286 287 286 285 285 284 283 283 282 281 281 281 280 281 281 280 280 279 279 278 278 278 278
295 290 290 286 289 291 293 292 292 292 291 290 292 293 293 293 293 293 287 285 286 285 285 285 286 287 288 287 286 286 286 285 285 285 285 284 284 284 284 283 283 283 282 280 280 280 280 279 279 278 278 278 277 277
290 287 288 288 289 290 290 290 289 289 290 291 292 292 291 292 293 288 286 284 284 283 283 283 283 285 285 286 285 284 284 283 283 282 281 281 281 281 282 282 282 282 281 280 280 279 279 278 278 278 277 277 277 277
285 287 288 287 287 289 289 290 290 291 289 290 292 292 291 287 284 284 283 282 282 282 282 282 282 283 283 284 284 283 282 282 281 281 281 282 281 281 281 280 280 280 280 281 281 280 279 278 277 277 277 276 276 276
285 287 286 285 287 287 288 286 286 283 281 282 283 284 283 283 283 283 282 282 281 282 283 283 283 283 282 282 282 281 282 282 283 283 282 282 282 282 281 280 279 279 279 279 279 278 279 278 277 276 276 276 276 276
285 285 285 286 285 284 282 281 282 281 281 282 281 283 284 281 282 282 281 282 282 282 283 282 282 282 283 283 282 281 281 282 282 282 283 283 282 281 280 280 279 278 277 277 277 276 276 277 277 276 276 275 275 275
284 286 285 283 282 281 281 282 283 283 283 282 282 281 280 281 281 281 281 281 281 282 282 282 282 282 282 283 283 283 283 283 282 282 282 282 281 280 279 278 278 277 277 276 276 276 276 275 275 275 275 275 275 274
282 282 282 282 281 282 283 282 282 282 281 281 281 280 280 282 282 280 279 280 281 282 282 283 282 282 282 282 282 282 282 282 282 281 280 280 279 278 278 277 277 277 276 276 275 275 275 275 274 274 274 274 274 274
Wind_Speed
13 12 9 8 7 6 7 6 6 6 5 3 4 5 6 6 6 3 3 3 3 2 6 8 9 6 5 0 2 4 5 3 3 3 2 3 3 5 4 7 4 4 4 3 3 4 6 15 15 9 10 16 15 14
12 12 10 10 9 9 8 8 8 7 7 6 5 4 5 5 4 3 3 2 1 3 4 13 13 14 13 12 5 2 5 7 3 3 4 3 3 3 4 3 5 3 3 3 3 5 19 18 9 9 11 14 10 14
12 11 11 10 9 9 9 8 7 6 6 5 5 5 5 5 5 3 5 2 2 3 7 4 5 7 10 14 13 3 3 3 5 4 1 2 3 3 3 4 7 7 9 6 7 9 11 14 19 15 8 10 13 14
11 11 10 11 11 12 11 11 10 9 9 8 6 7 7 7 7 6 5 5 1 4 2 4 4 7 8 8 14 18 17 18 9 2 1 2 2 3 3 7 9 9 8 11 14 13 12 10 9 11 17 18 18 17
12 13 14 12 11 10 10 10 11 11 12 10 10 10 9 7 7 8 10 12 10 4 2 5 22 15 4 10 18 14 15 8 5 1 2 3 3 4 4 7 12 1 9 6 5 14 10 11 13 12 12 13 16 17
13 14 15 14 13 13 13 14 14 14 14 15 14 13 10 7 6 3 4 3 10 8 2 3 7 10 14 8 8 14 11 7 3 2 3 3 5 2 3 5 6 7 9 8 11 10 11 8 10 13 13 17 19 19
13 13 14 15 15 16 17 16 16 16 16 15 13 11 10 8 8 6 1 3 3 9 1 3 4 3 1 1 2 5 9 2 2 2 4 4 5 3 3 10 13 11 15 15 10 6 9 7 11 14 17 21 24 26
14 15 16 16 17 14 11 10 10 11 12 12 11 8 7 7 7 10 17 13 6 1 1 3 4 4 8 3 2 4 2 1 2 3 2 4 3 3 6 8 6 8 10 5 6 7 8 14 14 14 19 21 17 15
15 16 16 16 15 14 12 11 9 8 9 9 6 6 5 5 5 4 8 11 11 5 2 3 4 3 2 2 3 1 2 3 3 4 4 3 3 6 11 9 8 7 4 5 6 7 7 9 11 12 14 15 15 15
15 15 13 13 14 16 15 13 11 10 8 4 6 4 1 3 4 3 3 4 4 6 3 3 3 4 2 1 0 2 2 2 3 5 3 3 6 12 13 13 10 3 6 5 6 7 8 8 10 12 12 13 15 16
16 16 17 19 19 18 18 17 15 12 8 5 6 3 3 3 4 1 3 3 2 3 4 4 8 8 3 3 2 4 2 3 3 4 3 3 3 6 5 5 6 4 5 6 6 7 7 6 7 10 11 15 18 20
20 20 21 22 22 21 21 21 20 15 6 8 10 5 5 3 2 4 4 3 4 4 5 3 4 4 1 2 1 2 3 2 5 2 2 3 4 2 7 6 5 4 5 5 6 6 6 7 9 10 13 15 17 19
21 21 21 21 22 22 23 23 22 21 13 13 4 3 3 3 6 6 7 4 4 4 4 4 2 3 1 1 2 2 4 5 3 2 3 4 3 4 4 4 1 3 3 4 5 4 5 7 8 9 10 13 15 16
22 21 22 22 22 23 22 22 22 18 11 4 5 7 6 5 6 5 5 5 4 4 4 4 2 2 3 3 2 3 4 1 3 3 5 5 7 6 5 3 1 3 3 3 4 4 6 6 7 8 10 11 14 15
23 22 21 21 21 21 21 21 20 21 9 4 5 6 9 6 3 1 3 1 1 3 4 3 2 1 2 3 3 2 2 5 5 4 2 2 5 5 4 2 1 2 2 4 6 4 6 5 6 8 10 10 11 13
20 19 22 21 20 17 12 10 9 9 8 3 6 5 2 3 5 2 1 1 3 3 4 3 3 3 4 3 5 8 3 6 3 3 3 3 4 4 3 2 1 2 4 6 7 5 7 5 6 9 8 8 12 11
17 10 9 10 12 12 11 12 4 4 4 4 4 3 2 1 3 4 5 4 10 4 4 2 5 7 2 3 4 4 5 3 3 3 2 1 2 2 3 2 3 6 6 8 4 5 8 5 7 6 6 9 12 8
17 10 12 9 13 16 9 6 4 3 5 4 3 3 3 2 4 3 4 4 5 4 4 4 3 4 6 6 4 3 5 5 4 5 4 2 5 7 7 5 8 8 7 6 6 7 6 2 5 5 8 9 9 8
21 17 16 17 16 6 5 3 4 3 5 1 1 0 2 2 4 2 5 11 14 4 3 2 5 5 8 3 4 4 4 3 2 2 1 2 5 6 6 8 7 7 7 7 6 6 3 4 5 5 6 6 7 6
24 20 19 23 18 5 3 2 5 3 3 3 2 3 2 2 0 2 2 2 5 2 4 6 7 6 3 3 3 3 3 2 1 1 2 3 13 14 11 9 8 9 8 7 8 6 5 5 3 4 4 5 4 6
17 16 23 20 5 4 3 3 3 2 0 2 2 3 2 2 3 4 4 5 5 3 5 9 10 9 12 11 10 5 5 8 4 3 3 2 3 7 7 8 8 7 8 8 6 6 5 4 4 4 4 5 5 5
11 27 9 9 3 4 2 6 1 3 2 1 2 3 4 4 4 5 3 6 5 8 7 9 10 7 3 3 6 9 6 5 6 8 8 6 2 4 6 9 9 7 7 5 4 4 4 5 4 5 4 5 5 6
17 14 5 6 2 4 4 7 3 4 4 2 2 3 3 4 3 6 4 5 4 7 12 9 6 5 3 6 4 4 7 8 7 8 6 5 3 5 7 8 9 8 8 9 7 6 5 5 4 4 4 3 3 3
10 5 5 5 4 4 4 4 2 3 2 2 3 4 4 3 4 3 4 3 3 3 2 4 4 2 2 2 2 5 7 7 5 4 5 6 5 8 8 9 9 7 4 3 5 5 4 4 3 4 4 4 4 4
4 5 3 4 3 4 6 6 5 4 4 6 4 4 2 3 3 4 3 2 1 1 2 4 3 2 2 2 5 5 7 7 6 4 8 8 8 8 5 5 5 5 5 5 6 6 6 5 5 4 3 3 4 5
6 5 5 6 5 5 5 6 8 8 4 5 6 2 2 3 3 5 2 1 0 0 2 3 3 2 2 5 2 6 8 9 7 7 9 8 9 10 9 6 6 7 6 6 5 6 6 6 6 5 5 5 5 5
5 5 3 2 1 2 2 2 2 3 5 6 3 5 4 4 5 3 2 3 2 3 3 4 5 6 4 8 6 8 9 8 6 5 6 10 8 7 3 4 6 6 7 6 6 6 6 6 6 6 6 6 6 6
2 4 8 7 3 2 4 4 5 7 4 3 4 6 5 5 4 2 1 5 6 5 5 5 6 5 4 7 10 11 9 9 8 6 5 5 5 6 7 7 7 6 6 5 5 5 5 6 6 6 6 6 6 6
2 3 4 4 2 3 4 6 5 4 2 3 4 4 3 1 1 2 4 6 7 8 7 7 5 6 5 8 9 10 10 13 12 4 5 3 4 8 9 7 7 6 6 6 5 4 4 5 5 6 7 7 8 8
4 3 3 4 5 6 3 1 1 1 1 1 1 1 1 2 3 8 8 9 10 11 10 8 10 10 9 9 8 7 9 11 10 7 3 3 2 5 7 8 8 7 7 7 7 6 5 5 5 6 6 7 7 8
4 2 2 3 4 1 2 2 2 1 1 1 1 1 2 2 4 8 14 12 11 9 10 10 10 10 10 12 12 10 7 12 12 11 8 5 4 5 6 7 8 7 6 6 6 6 6 7 7 7 8 8 9 9
2 3 3 3 1 1 1 2 2 1 2 2 2 2 1 1 3 3 4 12 11 10 12 11 12 11 12 9 9 9 6 6 9 10 10 8 7 7 8 8 7 6 5 5 5 5 5 6 7 7 9 10 11 11
2 2 2 3 2 3 3 2 1 1 1 2 2 3 3 3 5 0 0 11 7 8 10 10 9 7 11 12 10 9 7 6 4 5 5 6 6 6 6 6 5 5 5 5 4 5 6 7 8 9 10 11 12 12
Wind_Direction
258 254 234 225 240 258 268 272 273 269 278 298 326 340 354 354 4 22 345 2 338 301 300 288 282 288 299 344 267 355 312 16 314 271 299 343 319 20 303 349 6 344 324 315 298 261 241 358 350 349 315 327 320 313
245 235 230 237 244 254 260 267 272 290 268 259 273 301 314 325 334 341 312 70 314 266 288 303 287 275 274 276 295 263 278 323 314 318 11 334 338 325 329 290 333 295 316 308 235 275 312 320 317 320 306 293 315 337
238 232 232 243 251 253 256 263 264 269 263 268 284 294 288 279 290 279 303 284 1 271 291 247 253 279 253 247 247 255 237 275 293 299 306 280 277 311 277 280 298 303 310 282 300 304 307 313 310 301 308 329 330 322
230 234 240 249 257 255 250 257 256 254 259 260 269 281 283 266 259 268 249 266 227 290 287 298 296 290 271 250 237 229 256 283 296 356 300 246 254 274 277 298 300 269 304 282 285 286 287 290 305 338 331 327 317 309
240 246 247 248 251 256 259 263 257 255 255 258 264 265 264 270 257 262 258 250 248 267 281 292 306 298 254 267 230 246 237 249 264 287 240 233 243 262 262 269 263 237 263 277 270 278 286 309 320 321 317 325 324 317
249 251 248 246 251 258 261 260 258 257 257 260 261 259 257 253 246 243 261 218 231 224 290 288 299 300 296 276 266 219 240 251 121 216 240 257 236 259 258 263 252 288 322 311 301 294 289 305 330 335 327 321 329 326
247 253 253 255 257 257 257 260 257 253 255 260 256 249 245 236 223 224 275 147 146 165 252 293 275 217 154 41 214 233 235 128 149 212 231 238 239 166 249 256 270 291 283 277 272 333 317 323 319 331 338 334 334 327
250 254 256 252 254 250 246 256 261 252 249 253 246 245 242 235 240 256 251 246 192 116 309 255 266 273 167 222 186 76 93 76 201 241 238 247 256 171 248 261 277 275 278 296 19 0 331 325 332 343 346 338 328 324
250 253 252 247 238 237 242 247 249 249 248 249 249 232 220 213 215 251 240 237 219 211 212 223 230 275 150 252 80 163 160 220 205 222 228 212 208 225 236 250 258 282 346 37 354 323 328 345 334 341 338 329 330 328
248 254 252 252 247 242 238 236 242 244 252 235 207 183 237 218 204 170 112 163 208 195 233 240 217 243 181 89 256 229 166 230 251 226 210 213 246 258 262 260 265 60 54 11 340 326 338 328 336 330 325 331 332 335
253 251 253 253 252 250 247 241 237 238 236 188 181 203 197 177 162 167 211 201 159 245 221 230 223 241 220 232 233 200 214 223 252 256 194 239 252 241 265 123 105 76 41 25 1 337 334 354 331 322 331 338 343 339
256 253 252 250 250 249 245 241 234 222 204 197 159 144 163 176 198 214 198 193 221 238 178 211 211 208 162 115 226 261 232 226 250 309 260 266 253 282 137 128 110 67 33 2 346 326 344 320 325 334 335 342 342 334
255 252 250 253 247 245 243 238 234 228 206 145 153 149 182 169 216 217 192 196 196 207 199 185 145 131 84 97 225 242 236 235 344 234 235 241 282 124 130 117 155 48 5 350 331 325 317 318 342 344 337 341 337 342
252 254 256 254 250 246 242 241 233 216 182 182 170 194 196 184 229 205 199 179 210 170 173 157 103 151 198 177 215 240 229 258 254 229 227 237 231 176 155 179 68 311 14 344 313 315 312 339 339 336 340 345 340 341
252 257 257 251 249 243 246 242 229 204 165 199 181 205 207 228 206 174 233 290 104 133 118 89 102 208 186 239 202 260 261 240 225 232 293 168 155 152 166 147 292 349 6 311 288 287 300 317 327 327 333 342 345 342
255 259 252 248 244 245 239 212 171 154 161 199 218 197 192 208 208 133 222 191 156 145 123 121 148 207 217 207 194 209 229 218 228 220 247 125 164 196 178 113 44 278 287 274 260 272 289 312 315 312 327 351 344 344
254 236 244 247 227 205 177 163 158 207 213 204 221 222 211 252 214 185 179 192 170 166 189 168 186 206 167 210 214 217 221 240 261 282 330 281 190 141 123 204 267 282 259 257 237 259 274 299 314 322 342 340 343 352
231 232 217 202 185 160 160 172 164 231 232 210 209 187 186 203 226 217 175 161 165 190 178 217 199 187 210 200 204 220 228 241 241 245 238 181 168 176 185 208 272 266 243 237 238 260 266 293 323 331 329 337 347 2
230 233 215 199 177 139 140 193 182 253 231 193 185 266 192 219 209 231 193 192 204 192 160 180 227 220 226 233 239 254 259 242 242 264 185 161 178 191 218 251 239 237 219 221 231 253 250 252 251 286 315 333 341 357
227 224 201 197 176 127 149 202 193 251 224 205 168 179 187 218 338 197 192 152 195 172 206 217 231 241 202 209 200 215 199 164 129 299 256 226 229 224 209 208 207 206 200 214 226 232 244 245 223 292 306 319 328 334
195 173 174 173 157 157 180 164 203 260 269 238 147 160 216 185 221 218 225 179 198 217 233 228 243 248 245 252 245 228 205 195 195 209 253 282 236 196 175 178 178 189 213 215 219 224 242 256 271 292 283 283 295 307
133 166 140 182 145 149 191 197 208 138 214 173 156 207 221 223 227 214 169 204 231 234 237 242 243 244 232 194 213 224 218 211 242 256 253 245 186 169 169 182 181 198 215 211 217 231 238 251 261 271 270 285 288 286
159 177 159 149 133 185 157 158 174 185 208 220 184 217 230 227 219 130 211 222 243 228 234 245 235 199 156 153 164 212 233 223 226 208 219 197 180 172 163 171 186 197 195 217 219 224 235 233 240 263 269 275 287 291
166 177 202 159 163 152 143 183 190 161 192 226 216 229 219 208 141 225 242 227 212 118 135 158 155 129 145 182 202 205 221 220 220 181 206 188 172 180 187 188 194 210 218 173 202 219 223 227 245 253 267 282 290 301
178 199 182 146 120 135 175 170 170 181 228 199 218 244 218 167 218 235 237 241 101 151 157 149 193 212 204 181 183 153 169 203 189 179 194 202 182 159 169 176 188 197 209 214 219 220 220 227 235 246 259 283 304 299
218 181 190 161 163 167 173 175 194 200 193 195 219 213 162 207 235 244 228 112 153 232 172 178 180 179 216 224 165 190 189 194 194 186 184 200 181 186 188 185 195 218 225 217 224 228 227 236 241 247 255 267 284 302
208 176 168 35 237 159 160 131 152 160 187 199 199 178 191 227 237 235 147 188 203 161 168 180 205 216 199 160 143 150 165 182 189 175 182 190 203 209 208 205 214 193 214 220 219 224 237 237 242 247 254 264 275 287
186 155 168 177 188 206 154 172 186 197 201 196 133 188 206 211 242 172 126 162 174 179 182 195 193 194 193 181 175 159 160 171 171 156 151 178 206 213 214 216 218 221 211 212 226 238 243 247 252 260 266 273 280 284
163 190 117 147 148 183 204 195 207 209 180 152 177 205 234 259 51 152 183 187 179 176 182 178 176 168 161 155 161 173 179 171 159 157 201 211 193 232 221 215 224 218 214 219 224 240 259 258 268 267 267 270 276 285
181 166 124 166 177 208 201 169 119 79 32 78 20 322 273 251 232 215 198 188 190 203 205 197 182 185 183 181 181 188 192 193 197 205 195 224 211 183 202 207 214 220 225 224 226 233 232 255 269 283 289 293 294 297
128 147 136 167 204 89 75 96 102 130 159 143 116 236 274 314 286 244 220 217 211 204 190 182 186 200 198 196 189 183 199 209 206 212 215 227 238 230 217 214 220 227 222 220 227 235 242 251 267 277 280 283 289 292
166 193 148 153 158 122 188 205 176 205 169 199 231 171 287 273 261 207 212 193 197 201 208 201 195 204 203 199 196 185 162 176 205 223 230 233 233 229 228 224 219 216 217 224 236 248 262 268 269 276 279 284 292 297
81 70 70 117 134 184 172 144 147 311 243 242 245 188 213 211 249 202 301 197 213 215 208 206 201 192 192 194 194 197 204 210 218 210 204 211 221 227 224 224 220 218 224 231 246 263 272 278 279 283 287 292 296 300